Weather History for Kindakun Rocks, BC

Change the Weather History Date:

Thursday, January 23, 2014

  Actual Average Record
Temperature  
Mean Temperature 48 °F -  
Max Temperature 52 °F - - ()
Min Temperature 43 °F - - ()
Degree Days  
Heating Degree Days 16    
Moisture  
Dew Point 46 °F    
Average Humidity 87    
Maximum Humidity 100    
Minimum Humidity 75    
Precipitation  
Precipitation 0.01 in - - ()
Sea Level Pressure  
Sea Level Pressure 30.43 in    
Wind  
Wind Speed 13 mph ()    
Max Wind Speed 22 mph    
Max Gust Speed -    
T = Trace of Precipitation, MM = Missing Value Source: Averaged Metar Reports

Daily Weather History Graph

Daily Weather History Graph

Search for Another Location

Airport:

Trip Planner

Search our weather history database for the weather conditions in past years. The results will help you decide how hot, cold, wet, or windy it might be!

Date:

Astronomy

Jan. 23, 2014 Rise Set
Actual Time 8:48 AM PST 5:17 PM PST
Civil Twilight 8:09 AM PST 5:57 PM PST
Nautical Twilight 7:26 AM PST 6:40 PM PST
Astronomical Twilight 6:45 AM PST 7:21 PM PST
Moon 12:59 AM PST (1/23) 11:21 AM PST (1/23)
Length of Visible Light 9h 47m
Length of Day
8h 29m
Waning Gibbous, 54% of the Moon is Illuminated
Jan 23
Waning Gibbous
Jan 23
Last Quarter
Jan 30
New
Feb 6
First Quarter
Feb 14
Full

Hourly Weather History & Observations

Time (PST) Temp. Windchill Dew Point Humidity Pressure Visibility Wind Dir Wind Speed Gust Speed Precip Events Conditions
12:00 AM 50.7 °F - 46.2 °F 85% 30.40 in - South 21.9 mph - N/A   Unknown
1:00 AM 51 °F - 46 °F 77% 30.40 in - South 20.7 mph - -  
1:00 AM 50.5 °F - 46.0 °F 85% 30.40 in - South 20.7 mph - 0.01 in   Unknown
2:00 AM 51.1 °F - 46.2 °F 83% 30.40 in - South 20.7 mph - N/A   Unknown
3:00 AM 51.1 °F - 46.0 °F 83% 30.41 in - South 17.3 mph - N/A   Unknown
4:00 AM 52 °F - 46 °F 75% 30.41 in - SSE 17.3 mph - -  
4:00 AM 51.8 °F - 46.4 °F 82% 30.41 in - SSE 17.3 mph - N/A   Unknown
5:00 AM 49.6 °F - 46.6 °F 89% 30.42 in - South 16.1 mph - N/A   Unknown
6:00 AM 47.3 °F - 45.0 °F 92% 30.41 in - SSE 16.1 mph - N/A   Unknown
7:00 AM 50 °F - 45 °F 76% 30.42 in - South 15.0 mph - -  
7:00 AM 49.6 °F - 44.8 °F 83% 30.42 in - South 15.0 mph - N/A   Unknown
8:00 AM 49.1 °F - 44.4 °F 84% 30.43 in - South 10.4 mph - N/A   Unknown
9:00 AM 49.3 °F - 41.9 °F 76% 30.44 in - South 15.0 mph - N/A   Unknown
10:00 AM 49 °F - 44 °F 79% 30.46 in - South 12.7 mph - -  
10:00 AM 48.9 °F - 44.4 °F 84% 30.46 in - South 12.7 mph - N/A   Unknown
11:00 AM 48.7 °F - 44.8 °F 86% 30.46 in - SSE 10.4 mph - N/A   Unknown
12:00 PM 49.6 °F - 45.9 °F 87% 30.46 in - SSE 10.4 mph - N/A   Unknown
1:00 PM 50 °F - 47 °F 84% 30.45 in - SSE 9.2 mph - -  
1:00 PM 49.6 °F - 46.6 °F 89% 30.45 in - SSE 9.2 mph - N/A   Unknown
2:00 PM 50.7 °F - 45.9 °F 83% 30.43 in - South 12.7 mph - N/A   Unknown
3:00 PM 50.2 °F - 45.9 °F 85% 30.43 in - South 16.1 mph - N/A   Unknown
4:00 PM 50 °F - 47 °F 86% 30.44 in - South 6.9 mph - -  
4:00 PM 49.6 °F - 47.1 °F 91% 30.44 in - South 6.9 mph - N/A   Unknown
5:00 PM 48.4 °F - 46.2 °F 92% 30.43 in - SSE 4.6 mph - N/A   Unknown
6:00 PM 46.9 °F - 45.9 °F 96% 30.43 in - SSE 1.2 mph - N/A   Unknown
7:00 PM 47 °F - 46 °F 92% 30.42 in - SSE 2.3 mph - -  
7:00 PM 46.8 °F - 45.5 °F 95% 30.42 in - SSE 2.3 mph - N/A   Unknown
8:00 PM 45.7 °F 44.4 °F 45.1 °F 98% 30.42 in - SE 3.5 mph - N/A   Unknown
9:00 PM 45.3 °F - 45.3 °F 100% 30.41 in - SSE 2.3 mph - N/A   Unknown
10:00 PM 45 °F - 45 °F 100% 30.41 in - SE 2.3 mph - -  
10:00 PM 45.3 °F - 45.1 °F 99% 30.41 in - ESE 2.3 mph - N/A   Unknown
11:00 PM 43.7 °F - 43.9 °F 100% 30.42 in - West 1.2 mph - N/A   Unknown